This demonstration page uses our WeatherBlox Daily Observations layout. Learn more.

Hourly Observations for April 11, 2018

Temp ( °F °C ) Dew Point ( °F °C ) Humidity (%) Winds ( mph kmh ) Pressure ( in mb ) Visibility ( mi km ) Precip ( " mm )
12:15 am 00:15 Clear 51 10.5 33 0.5 50 50 S 7 11 29.94 1014 10 16.0934 0 0
12:35 am 00:35 Clear 54 12.1 32 0 44 44 S 8 13 29.91 1013 10 16.0934 0 0
12:55 am 00:55 Clear 54 12.2 32 0 43 43 S 12 19 29.88 1012 10 16.0934 0 0
1:15 am 01:15 Clear 53 11.5 32 0 45 45 S 9 15 29.91 1013 10 16.0934 0 0
1:35 am 01:35 Clear 52 11.3 32 0 46 46 S 12 19 29.91 1013 10 16.0934 0 0
1:55 am 01:55 Clear 51 10.4 32 0 49 49 S 12 19 29.91 1013 10 16.0934 0 0
2:15 am 02:15 Clear 50 9.8 32 0.1 51 51 S 12 19 29.88 1012 10 16.0934 0 0
2:35 am 02:35 Clear 49 9.2 32 0.2 54 54 S 9 15 29.88 1012 10 16.0934 0 0
2:55 am 02:55 Clear 47 8.5 32 0.2 56 56 S 9 15 29.88 1012 10 16.0934 0 0
3:15 am 03:15 Clear 45 7 32 0 61 61 S 8 13 29.88 1012 10 16.0934 0 0
3:35 am 03:35 Clear 46 8 32 0.2 58 58 S 10 17 29.85 1011 10 16.0934 0 0
3:55 am 03:55 Clear 49 9.2 32 0.2 54 54 S 13 20 29.83 1010 10 16.0934 0 0
4:15 am 04:15 Clear 49 9.7 32 0.2 52 52 SSW 15 24 29.83 1010 10 16.0934 0 0
4:35 am 04:35 Clear 49 9.3 32 0.1 53 53 SSW 14 22 29.83 1010 10 16.0934 0 0
4:55 am 04:55 Clear 50 9.8 32 0.2 52 52 SSW 14 22 29.83 1010 10 16.0934 0 0
5:15 am 05:15 Clear 50 9.8 33 0.4 52 52 SSW 15 24 29.8 1009 10 16.0934 0 0
5:35 am 05:35 Clear 50 10.2 33 0.5 51 51 SSW 13 20 29.8 1009 10 16.0934 0 0
5:55 am 05:55 Clear 50 10.1 33 0.6 52 52 SSW 12 19 29.8 1009 10 16.0934 0 0
6:15 am 06:15 Clear 49 9.4 33 0.6 55 55 SSW 8 13 29.8 1009 10 16.0934 0 0
6:35 am 06:35 Clear 48 8.7 33 0.6 57 57 SSW 10 17 29.8 1009 10 16.0934 0 0
6:55 am 06:55 Clear 47 8.5 33 0.6 58 58 SSW 8 13 29.8 1009 10 16.0934 0 0
7:15 am 07:15 Partly Cloudy 47 8.1 33 0.5 59 59 SW 7 11 29.8 1009 10 16.0934 0 0
7:35 am 07:35 Sunny 46 8 33 0.5 59 59 SW 3 6 29.8 1009 10 16.0934 0 0
7:55 am 07:55 Sunny 47 8.4 33 0.6 58 58 SSW 5 7 29.8 1009 10 16.0934 0 0
8:15 am 08:15 Sunny 48 8.9 33 0.7 57 57 SSW 3 6 29.8 1009 10 16.0934 0 0
8:35 am 08:35 Sunny 49 9.2 34 1 57 57 SW 6 9 29.8 1009 7 11.26538 0 0
8:55 am 08:55 Sunny 51 10.3 34 1.1 53 53 SSW 9 15 29.8 1009 7 11.26538 0 0
9:15 am 09:15 Sunny 52 11.3 34 1 49 49 SSW 7 11 29.77 1008 10 16.0934 0 0
9:35 am 09:35 Sunny 55 12.6 33 0.8 45 45 SSW 7 11 29.77 1008 10 16.0934 0 0
9:55 am 09:55 Sunny 57 13.8 34 1.2 43 43 SW 6 9 29.77 1008 7 11.26538 0 0
10:15 am 10:15 Sunny 59 14.9 34 1.1 39 39 SW 6 9 29.74 1007 10 16.0934 0 0
10:35 am 10:35 Sunny 60 15.8 35 1.5 38 38 SW 6 9 29.74 1007 10 16.0934 0 0
10:55 am 10:55 Sunny 63 17.1 35 1.6 35 35 WSW 5 7 29.74 1007 7 11.26538 0 0
11:15 am 11:15 Sunny 64 17.5 35 1.6 35 35 SSW 3 6 29.71 1006 10 16.0934 0 0
11:35 am 11:35 Sunny 63 17.4 36 2 36 36 SW 6 9 29.71 1006 7 11.26538 0 0
11:55 am 11:55 Partly Cloudy 64 18 35 1.8 34 34 WSW 6 9 29.71 1006 10 16.0934 0 0
12:15 pm 12:15 Sunny 64 18 36 2 34 34 WSW 3 6 29.71 1006 10 16.0934 0 0
12:35 pm 12:35 Partly Cloudy 65 18.5 36 2.4 34 34 W 8 13 29.71 1006 10 16.0934 0 0
12:55 pm 12:55 Partly Cloudy 66 19.1 36 2.4 33 33 WNW 5 7 29.68 1005 10 16.0934 0 0
1:15 pm 13:15 Partly Cloudy 68 19.9 37 2.5 32 32 SW 6 9 29.68 1005 10 16.0934 0 0
1:35 pm 13:35 Sunny 69 20.6 37 2.5 30 30 SSW 3 6 29.62 1003 10 16.0934 0 0
1:55 pm 13:55 Sunny 70 21.3 37 2.9 30 30 Calm 29.62 1003 10 16.0934 0 0
2:15 pm 14:15 Sunny 72 22 37 2.5 28 28 Calm 29.59 1002 10 16.0934 0 0
2:35 pm 14:35 Sunny 74 23.5 35 1.7 24 24 Calm 29.59 1002 10 16.0934 0 0
2:55 pm 14:55 Hazy 77 24.9 37 2.7 24 24 E 5 7 29.56 1001 5 8.0467 0 0
3:15 pm 15:15 Sunny 78 25.5 35 1.6 21 21 Calm 29.56 1001 10 16.0934 0 0
3:35 pm 15:35 Sunny 80 26.4 35 1.6 20 20 S 7 11 29.56 1001 10 16.0934 0 0
3:55 pm 15:55 Sunny 78 25.3 37 2.7 23 23 S 13 20 29.56 1001 10 16.0934 0 0
4:15 pm 16:15 Sunny 76 24.7 36 2.4 23 23 SSE 10 17 29.56 1001 10 16.0934 0 0
4:35 pm 16:35 Sunny 77 24.9 37 2.7 24 24 S 12 19 29.56 1001 10 16.0934 0 0
4:55 pm 16:55 Sunny 77 25.1 37 2.9 24 24 S 15 24 29.53 1000 7 11.26538 0 0
5:15 pm 17:15 Sunny 76 24.7 39 3.7 26 26 S 16 26 29.53 1000 10 16.0934 0 0
5:35 pm 17:35 Sunny 76 24.5 39 4 27 27 SSW 15 24 29.53 1000 10 16.0934 0 0
5:55 pm 17:55 Sunny 76 24.5 40 4.3 27 27 S 10 17 29.53 1000 10 16.0934 0 0
6:15 pm 18:15 Sunny 76 24.5 41 4.8 28 28 S 13 20 29.53 1000 10 16.0934 0 0
6:35 pm 18:35 Sunny 76 24.2 41 5 29 29 SSW 14 22 29.53 1000 10 16.0934 0 0
6:55 pm 18:55 Sunny 75 24 40 4.6 29 29 S 12 19 29.5 999 10 16.0934 0 0
7:15 pm 19:15 Sunny 74 23.4 41 5 30 30 S 15 24 29.5 999 10 16.0934 0 0
7:35 pm 19:35 Sunny 72 22.4 41 4.8 32 32 S 12 19 29.53 1000 10 16.0934 0 0
7:55 pm 19:55 Sunny 70 21 40 4.6 34 34 S 12 19 29.53 1000 10 16.0934 0 0
8:15 pm 20:15 Clear 67 19.6 40 4.4 37 37 S 10 17 29.53 1000 10 16.0934 0 0
8:35 pm 20:35 Clear 65 18.5 40 4.5 40 40 SSW 5 7 29.56 1001 10 16.0934 0 0
8:55 pm 20:55 Clear 63 17 40 4.5 44 44 W 5 7 29.56 1001 10 16.0934 0 0
9:15 pm 21:15 Clear 62 16.8 40 4.6 45 45 SW 7 11 29.59 1002 10 16.0934 0 0
9:35 pm 21:35 Clear 60 15.5 40 4.6 48 48 SSW 8 13 29.62 1003 10 16.0934 0 0
9:55 pm 21:55 Clear 60 15.3 40 4.6 49 49 SW 7 11 29.62 1003 10 16.0934 0 0
10:15 pm 22:15 Clear 61 15.9 40 4.5 47 47 SW 8 13 29.62 1003 10 16.0934 0 0
10:35 pm 22:35 Clear 60 15.7 40 4.5 48 48 WSW 7 11 29.62 1003 10 16.0934 0 0
10:55 pm 22:55 Clear 57 13.9 40 4.2 52 52 NW 9 15 29.65 1004 10 16.0934 0 0
11:15 pm 23:15 Clear 58 14.6 40 4.2 50 50 NNW 6 9 29.65 1004 10 16.0934 0 0
11:35 pm 23:35 Clear 55 12.8 38 3.5 53 53 N 9 15 29.68 1005 10 16.0934 0 0
11:55 pm 23:55 Clear 58 14.3 38 3.6 49 49 NNE 12 19 29.65 1004 10 16.0934 0 0

Powered by AerisWeather